Home   Weather   Township of Paris   Past weeks
Flag for USA

Past Weather in Township of Paris, Ohio, USA — Yesterday and Last 2 Weeks

Now
83 °F

Broken clouds.


Feels Like: 88 °F
Forecast: 89 / 73 °F
Wind: 9 mph from Northeast

Location: Akron Fulton International Airport

Current Time: Jul 21, 2019 at 11:10:22 am

Latest Report: Jul 21, 2019 at 10:36 am


Visibility: 10 mi

Pressure: 29.97 "Hg

Humidity: 70%

Dew Point: 72 °F

Location of Township of ParisLocation

Past Weather in Township of Paris — Graph

°F

Township of Paris Temperature Yesterday

Maximum temperature yesterday: 93 °F (at 1:54 pm)
Minimum temperature yesterday: 79 °F (at 4:54 am)
Average temperature yesterday: 85 °F

High & Low Weather Summary for the Past Weeks

 TemperatureHumidityPressure
High93 °F (Jul 19, 3:54 pm)91% (Jul 7, 4:10 am)30.14 "Hg (Jul 7, 4:10 am)
Low62 °F (Jul 9, 5:54 am)35% (Jul 14, 6:54 pm)29.79 "Hg (Jul 11, 12:54 pm)
Average78 °F70%29.95 "Hg
* Reported Jul 6 8:54 am — Jul 21 8:54 am, Township of Paris. Weather by CustomWeather, © 2019

Note: Actual official high and low records may vary slightly from our data, if they occured in-between our weather recording intervals... More about our weather records

Advertising

Township of Paris Weather History for the Previous 24 Hours

Scroll right to see more
 ConditionsComfort  
Time TempWeatherWind HumidityBarometerVisibility
8:54 am
Sun, Jul 21
83 °FPassing clouds.No wind72%29.92 "Hg10 mi
7:54 am80 °FSunny.No wind76%29.92 "Hg10 mi
6:54 am80 °FPassing clouds.6 mph79%29.91 "Hg10 mi
6:24 am80 °FScattered clouds.7 mph79%29.95 "Hg10 mi
5:54 am81 °FPassing clouds.3 mph77%29.90 "Hg10 mi
4:54 am80 °FPassing clouds.5 mph79%29.87 "Hg10 mi
3:54 am81 °FClear.5 mph74%29.88 "Hg10 mi
2:54 am82 °FClear.12 mph72%29.87 "Hg10 mi
1:54 am82 °FClear.9 mph74%29.87 "Hg10 mi
12:54 am82 °FClear.6 mph74%29.88 "Hg10 mi
11:54 pm
Sat, Jul 20
83 °FClear.8 mph72%29.88 "Hg10 mi
10:54 pm84 °FClear.6 mph70%29.89 "Hg10 mi
9:54 pm84 °FClear.7 mph70%29.90 "Hg10 mi
8:54 pm87 °FClear.9 mph63%29.90 "Hg10 mi
7:54 pm90 °FSunny.8 mph56%29.89 "Hg10 mi
6:54 pm92 °FPassing clouds.10 mph54%29.89 "Hg10 mi
5:54 pm93 °FSunny.15 mph52%29.89 "Hg10 mi
4:54 pm93 °FScattered clouds.13 mph52%29.89 "Hg10 mi
3:54 pm93 °FSunny.15 mph49%29.87 "Hg10 mi
2:54 pm93 °FSunny.13 mph52%29.87 "Hg10 mi
1:54 pm93 °FPassing clouds.12 mph56%29.87 "Hg10 mi
12:54 pm87 °FSunny.10 mph65%29.89 "Hg10 mi
11:54 am87 °FSunny.10 mph65%29.89 "Hg10 mi
Weather by CustomWeather, © 2019

See weather overview